Weather History for KWLD - August, 2013

Change the Weather History Date:

Thursday, August 1, 2013

  Actual Average Record
Temperature  
Mean Temperature 78 °F -  
Max Temperature 88 °F 90 °F 109 °F (2012)
Min Temperature 68 °F 69 °F 61 °F (2000)
Cooling Degree Days 12    
Growing Degree Days 28 (Base 50)    
Moisture  
Dew Point 69 °F    
Average Humidity 75    
Maximum Humidity 100    
Minimum Humidity 51    
Precipitation  
Precipitation 0.01 in - - ()
Sea Level Pressure  
Sea Level Pressure 30.04 in    
Wind  
Wind Speed 3 mph (SE)    
Max Wind Speed 12 mph    
Max Gust Speed -    
Visibility 10 miles    
Events      
Averages and records for this station are not official NWS values.
T = Trace of Precipitation, MM = Missing Value Source: NWS Daily Summary

Daily Weather History Graph

Daily Weather History Graph

Search for Another Location

Airport or City:

Trip Planner

Search our weather history database for the weather conditions in past years. The results will help you decide how hot, cold, wet, or windy it might be!

Date:

Astronomy

Aug. 01, 2013 Rise Set
Actual Time 6:33 AM CDT 8:35 PM CDT
Civil Twilight 6:04 AM CDT 9:03 PM CDT
Nautical Twilight 5:29 AM CDT 9:38 PM CDT
Astronomical Twilight 4:51 AM CDT 10:16 PM CDT
Moon 2:10 AM CDT (8/1) 4:44 PM CDT (8/1)
Length of Visible Light 14h 59m
Length of Day
14h 01m
Waning Crescent, 23% of the Moon is Illuminated
Aug 1
Waning Crescent
Aug 6
New
Aug 14
First Quarter
Aug 20
Full
Aug 28
Last Quarter

Hourly Weather History & Observations

Time (CDT) Temp. Heat Index Dew Point Humidity Pressure Visibility Wind Dir Wind Speed Gust Speed Precip Events Conditions
12:54 AM 73.0 °F - 70.0 °F 90% 30.07 in 10.0 mi Calm Calm - N/A   Clear
1:54 AM 70.0 °F - 69.1 °F 97% 30.07 in 10.0 mi Calm Calm - N/A   Clear
2:54 AM 73.0 °F - 69.1 °F 87% 30.07 in 10.0 mi Calm Calm - N/A   Mostly Cloudy
3:54 AM 68.0 °F - 66.9 °F 96% 30.06 in 10.0 mi Calm Calm - N/A   Clear
4:54 AM 68.0 °F - 68.0 °F 100% 30.07 in 9.0 mi Calm Calm - N/A   Clear
5:54 AM 69.1 °F - 68.0 °F 96% 30.08 in 10.0 mi ENE 4.6 mph - N/A   Clear
6:54 AM 68.0 °F - 66.9 °F 96% 30.10 in 9.0 mi Calm Calm - N/A   Clear
7:54 AM 72.0 °F - 68.0 °F 87% 30.11 in 10.0 mi Calm Calm - 0.01 in   Clear
8:54 AM 73.9 °F - 70.0 °F 87% 30.11 in 10.0 mi East 5.8 mph - N/A   Clear
9:54 AM 78.1 °F - 71.1 °F 79% 30.11 in 10.0 mi SE 5.8 mph - N/A   Clear
10:54 AM 82.0 °F 85.9 °F 70.0 °F 67% 30.10 in 10.0 mi SE 4.6 mph - N/A   Clear
11:54 AM 82.9 °F 86.5 °F 69.1 °F 63% 30.09 in 10.0 mi ESE 9.2 mph - N/A   Clear
12:54 PM 84.0 °F 89.0 °F 71.1 °F 65% 30.08 in 10.0 mi ESE 8.1 mph - N/A   Clear
1:54 PM 84.9 °F 89.4 °F 70.0 °F 61% 30.05 in 10.0 mi SSE 8.1 mph - N/A   Clear
2:54 PM 86.0 °F 90.1 °F 69.1 °F 57% 30.04 in 10.0 mi SE 8.1 mph - N/A   Clear
3:54 PM 87.1 °F 89.9 °F 66.9 °F 51% 30.02 in 10.0 mi ESE 11.5 mph - N/A   Clear
4:54 PM 87.1 °F 90.6 °F 68.0 °F 53% 29.99 in 10.0 mi SE 6.9 mph - N/A   Clear
5:54 PM 87.1 °F 90.6 °F 68.0 °F 53% 29.96 in 10.0 mi SE 9.2 mph - N/A   Clear
6:54 PM 84.9 °F 88.2 °F 68.0 °F 57% 29.95 in 10.0 mi SE 10.4 mph - N/A   Clear
7:54 PM 82.0 °F 84.5 °F 66.9 °F 60% 29.97 in 10.0 mi SE 5.8 mph - N/A   Clear
8:54 PM 78.1 °F - 66.9 °F 68% 29.95 in 10.0 mi SE 5.8 mph - N/A   Clear
9:54 PM 77.0 °F - 66.9 °F 71% 29.95 in 10.0 mi East 5.8 mph - N/A   Clear
10:54 PM 75.0 °F - 68.0 °F 79% 29.93 in 10.0 mi SE 5.8 mph - N/A   Clear
11:54 PM 73.9 °F - 68.0 °F 82% 29.94 in 10.0 mi SSE 3.5 mph - N/A   Clear